Time,TemperatureF,DewpointF,PressureIn,WindDirection,WindDirectionDegrees,WindSpeedMPH,WindSpeedGustMPH,Humidity,HourlyPrecipIn,Conditions,Clouds,dailyrainin,SoftwareType,DateUTC
2013-04-04 00:03:00,34.3,20.7,30.25,SSW,197,0.0,0.0,57,-99.99,,,0.00,1-wire,2013-04-04 05:03:00,
2013-04-04 00:10:00,34.0,20.7,30.25,SSE,167,0.0,0.0,58,-99.99,,,0.00,1-wire,2013-04-04 05:10:00,
2013-04-04 00:17:00,33.4,20.3,30.25,SSE,167,0.0,0.0,58,-99.99,,,0.00,1-wire,2013-04-04 05:17:00,
2013-04-04 00:23:00,33.5,20.7,30.25,SSE,168,0.0,0.0,59,-99.99,,,0.00,1-wire,2013-04-04 05:23:00,
2013-04-04 00:29:00,33.0,20.6,30.25,SSE,168,0.0,0.0,60,-99.99,,,0.00,1-wire,2013-04-04 05:29:00,
2013-04-04 00:34:00,32.8,20.6,30.25,SSE,168,0.0,3.0,60,-99.99,,,0.00,1-wire,2013-04-04 05:34:00,
2013-04-04 00:40:00,32.8,20.8,30.24,SSW,192,1.0,3.0,61,-99.99,,,0.00,1-wire,2013-04-04 05:40:00,
2013-04-04 00:45:00,32.8,20.8,30.25,SSW,192,0.0,0.0,61,-99.99,,,0.00,1-wire,2013-04-04 05:45:00,
2013-04-04 00:50:00,32.7,20.6,30.24,SSW,192,0.0,0.0,61,-99.99,,,0.00,1-wire,2013-04-04 05:50:00,
2013-04-04 00:55:00,32.4,20.5,30.24,SSW,195,0.0,3.0,61,-99.99,,,0.00,1-wire,2013-04-04 05:55:00,
2013-04-04 01:02:00,32.4,20.4,30.23,SSW,195,0.0,0.0,61,-99.99,,,0.00,1-wire,2013-04-04 06:02:00,
2013-04-04 01:08:00,32.7,20.4,30.23,South,189,0.0,3.0,60,-99.99,,,0.00,1-wire,2013-04-04 06:08:00,
2013-04-04 01:14:00,33.0,20.3,30.22,South,189,1.0,3.0,59,-99.99,,,0.00,1-wire,2013-04-04 06:14:00,
2013-04-04 01:20:00,33.2,20.4,30.22,South,189,1.0,3.0,59,-99.99,,,0.00,1-wire,2013-04-04 06:20:00,
2013-04-04 01:26:00,33.5,20.2,30.22,South,186,2.0,3.0,58,-99.99,,,0.00,1-wire,2013-04-04 06:26:00,
2013-04-04 01:32:00,33.6,20.1,30.22,South,186,1.0,3.0,57,-99.99,,,0.00,1-wire,2013-04-04 06:32:00,
2013-04-04 01:37:00,33.6,19.8,30.22,South,187,2.0,6.0,57,-99.99,,,0.00,1-wire,2013-04-04 06:37:00,
2013-04-04 01:42:00,33.7,20.0,30.21,South,187,2.0,8.0,57,-99.99,,,0.00,1-wire,2013-04-04 06:42:00,
2013-04-04 01:47:00,33.7,19.8,30.22,South,187,1.0,6.0,56,-99.99,,,0.00,1-wire,2013-04-04 06:47:00,
2013-04-04 01:52:00,33.6,19.6,30.21,SSW,200,2.0,6.0,56,-99.99,,,0.00,1-wire,2013-04-04 06:52:00,
2013-04-04 01:57:00,33.9,19.8,30.21,SSW,200,1.0,6.0,56,-99.99,,,0.00,1-wire,2013-04-04 06:57:00,
2013-04-04 02:03:00,33.6,19.6,30.21,SSW,200,2.0,6.0,56,-99.99,,,0.00,1-wire,2013-04-04 07:03:00,
2013-04-04 02:08:00,33.6,19.1,30.20,South,191,0.0,0.0,55,-99.99,,,0.00,1-wire,2013-04-04 07:08:00,
2013-04-04 02:13:00,33.7,19.3,30.20,South,191,2.0,3.0,55,-99.99,,,0.00,1-wire,2013-04-04 07:13:00,
2013-04-04 02:18:00,33.6,19.4,30.20,South,191,1.0,3.0,56,-99.99,,,0.00,1-wire,2013-04-04 07:18:00,
2013-04-04 02:23:00,33.5,19.3,30.20,SSW,194,1.0,3.0,56,-99.99,,,0.00,1-wire,2013-04-04 07:23:00,
2013-04-04 02:28:00,33.6,19.1,30.20,SSW,194,2.0,6.0,55,-99.99,,,0.00,1-wire,2013-04-04 07:28:00,
2013-04-04 02:33:00,33.5,19.1,30.19,SSW,194,0.0,3.0,55,-99.99,,,0.00,1-wire,2013-04-04 07:33:00,
2013-04-04 02:38:00,33.4,19.0,30.19,SSW,197,1.0,3.0,55,-99.99,,,0.00,1-wire,2013-04-04 07:38:00,
2013-04-04 02:43:00,33.3,19.0,30.19,SSW,197,2.0,6.0,55,-99.99,,,0.00,1-wire,2013-04-04 07:43:00,
2013-04-04 02:48:00,33.1,19.2,30.19,SSW,197,2.0,3.0,56,-99.99,,,0.00,1-wire,2013-04-04 07:48:00,
2013-04-04 02:53:00,33.0,19.0,30.19,SSW,200,1.0,3.0,56,-99.99,,,0.00,1-wire,2013-04-04 07:53:00,
2013-04-04 02:58:00,33.0,19.0,30.19,SSW,200,1.0,3.0,56,-99.99,,,0.00,1-wire,2013-04-04 07:58:00,
2013-04-04 03:03:00,33.0,19.1,30.19,SSW,200,0.0,3.0,56,-99.99,,,0.00,1-wire,2013-04-04 08:03:00,
2013-04-04 03:08:00,32.8,19.1,30.18,SW,232,2.0,6.0,56,-99.99,,,0.00,1-wire,2013-04-04 08:08:00,
2013-04-04 03:13:00,32.8,19.0,30.18,SW,232,2.0,6.0,56,-99.99,,,0.00,1-wire,2013-04-04 08:13:00,
2013-04-04 03:19:00,32.9,19.1,30.18,SW,232,0.0,0.0,56,-99.99,,,0.00,1-wire,2013-04-04 08:19:00,
2013-04-04 03:24:00,32.7,19.2,30.18,SW,214,3.0,6.0,57,-99.99,,,0.00,1-wire,2013-04-04 08:24:00,
2013-04-04 03:29:00,32.7,19.1,30.18,SW,214,2.0,6.0,57,-99.99,,,0.00,1-wire,2013-04-04 08:29:00,
2013-04-04 03:34:00,32.4,18.7,30.18,SW,214,2.0,6.0,56,-99.99,,,0.00,1-wire,2013-04-04 08:34:00,
2013-04-04 03:39:00,32.6,19.0,30.18,SW,218,2.0,6.0,57,-99.99,,,0.00,1-wire,2013-04-04 08:39:00,
2013-04-04 03:45:00,32.5,18.9,30.18,SW,218,3.0,6.0,57,-99.99,,,0.00,1-wire,2013-04-04 08:45:00,
2013-04-04 03:50:00,32.5,18.8,30.18,SW,218,3.0,6.0,57,-99.99,,,0.00,1-wire,2013-04-04 08:50:00,
2013-04-04 03:55:00,32.6,18.9,30.18,SW,220,1.0,3.0,57,-99.99,,,0.00,1-wire,2013-04-04 08:55:00,
2013-04-04 04:01:00,32.6,18.8,30.17,SW,220,2.0,6.0,56,-99.99,,,0.00,1-wire,2013-04-04 09:01:00,
2013-04-04 04:07:00,32.6,19.1,30.17,SSW,200,1.0,3.0,57,-99.99,,,0.00,1-wire,2013-04-04 09:07:00,
2013-04-04 04:12:00,32.6,19.0,30.17,SSW,200,2.0,3.0,57,-99.99,,,0.00,1-wire,2013-04-04 09:12:00,
2013-04-04 04:17:00,32.4,18.7,30.16,SSW,200,3.0,6.0,56,-99.99,,,0.00,1-wire,2013-04-04 09:17:00,
2013-04-04 04:23:00,32.6,18.9,30.16,SSW,202,2.0,6.0,57,-99.99,,,0.00,1-wire,2013-04-04 09:23:00,
2013-04-04 04:29:00,32.5,18.8,30.17,SSW,202,3.0,9.0,57,-99.99,,,0.00,1-wire,2013-04-04 09:29:00,
2013-04-04 04:35:00,32.7,19.0,30.16,SSW,202,1.0,3.0,57,-99.99,,,0.00,1-wire,2013-04-04 09:35:00,
2013-04-04 04:42:00,32.3,18.9,30.17,SSW,205,1.0,3.0,57,-99.99,,,0.00,1-wire,2013-04-04 09:42:00,
2013-04-04 04:48:00,32.3,18.8,30.16,SSW,205,2.0,3.0,57,-99.99,,,0.00,1-wire,2013-04-04 09:48:00,
2013-04-04 04:54:00,32.3,18.9,30.16,SSW,207,3.0,6.0,57,-99.99,,,0.00,1-wire,2013-04-04 09:54:00,
2013-04-04 05:00:00,32.2,18.9,30.16,SSW,207,2.0,6.0,57,-99.99,,,0.00,1-wire,2013-04-04 10:00:00,
2013-04-04 05:05:00,32.4,19.0,30.17,SSW,207,0.0,3.0,57,-99.99,,,0.00,1-wire,2013-04-04 10:05:00,
2013-04-04 05:10:00,32.4,19.0,30.16,SSW,209,1.0,6.0,57,-99.99,,,0.00,1-wire,2013-04-04 10:10:00,
2013-04-04 05:15:00,32.3,19.1,30.16,SSW,209,3.0,6.0,58,-99.99,,,0.00,1-wire,2013-04-04 10:15:00,
2013-04-04 05:20:00,32.5,19.2,30.16,SSW,209,4.0,6.0,58,-99.99,,,0.00,1-wire,2013-04-04 10:20:00,
2013-04-04 05:26:00,32.7,19.4,30.17,SW,215,4.0,9.0,57,-99.99,,,0.00,1-wire,2013-04-04 10:26:00,
2013-04-04 05:31:00,32.6,19.4,30.17,SW,215,2.0,6.0,58,-99.99,,,0.00,1-wire,2013-04-04 10:31:00,
2013-04-04 05:37:00,32.4,19.4,30.17,SW,216,1.0,3.0,58,-99.99,,,0.00,1-wire,2013-04-04 10:37:00,
2013-04-04 05:42:00,32.5,19.4,30.16,SW,216,2.0,3.0,58,-99.99,,,0.00,1-wire,2013-04-04 10:42:00,
2013-04-04 05:47:00,32.4,19.3,30.16,SW,216,2.0,6.0,58,-99.99,,,0.00,1-wire,2013-04-04 10:47:00,
2013-04-04 05:53:00,32.2,19.3,30.16,SSW,213,1.0,3.0,58,-99.99,,,0.00,1-wire,2013-04-04 10:53:00,
2013-04-04 05:59:00,32.3,19.5,30.16,SSW,213,1.0,3.0,59,-99.99,,,0.00,1-wire,2013-04-04 10:59:00,
2013-04-04 06:04:00,32.1,19.4,30.16,SSW,213,3.0,6.0,59,-99.99,,,0.00,1-wire,2013-04-04 11:04:00,
2013-04-04 06:09:00,32.2,19.4,30.16,SSW,207,0.0,3.0,59,-99.99,,,0.00,1-wire,2013-04-04 11:09:00,
2013-04-04 06:15:00,32.2,19.6,30.16,SSW,207,2.0,6.0,59,-99.99,,,0.00,1-wire,2013-04-04 11:15:00,
2013-04-04 06:20:00,32.1,19.6,30.16,SSW,207,3.0,9.0,59,-99.99,,,0.00,1-wire,2013-04-04 11:20:00,
2013-04-04 06:27:00,31.9,19.6,30.15,SSW,206,2.0,6.0,60,-99.99,,,0.00,1-wire,2013-04-04 11:27:00,
2013-04-04 06:33:00,31.9,19.4,30.15,SSW,206,2.0,3.0,59,-99.99,,,0.00,1-wire,2013-04-04 11:33:00,
2013-04-04 06:39:00,32.0,19.5,30.15,SSW,206,1.0,3.0,59,-99.99,,,0.00,1-wire,2013-04-04 11:39:00,
2013-04-04 06:44:00,32.2,19.6,30.15,SSW,206,2.0,5.0,59,-99.99,,,0.00,1-wire,2013-04-04 11:44:00,
2013-04-04 06:49:00,32.0,19.5,30.14,SSW,206,2.0,9.0,59,-99.99,,,0.00,1-wire,2013-04-04 11:49:00,
2013-04-04 06:54:00,32.1,19.5,30.14,SSW,208,2.0,6.0,59,-99.99,,,0.00,1-wire,2013-04-04 11:54:00,
2013-04-04 06:59:00,32.5,19.7,30.15,SSW,208,3.0,6.0,59,-99.99,,,0.00,1-wire,2013-04-04 11:59:00,
2013-04-04 07:05:00,32.5,19.7,30.14,SSW,208,3.0,6.0,59,-99.99,,,0.00,1-wire,2013-04-04 12:05:00,
2013-04-04 07:10:00,32.6,19.8,30.14,SSW,212,2.0,6.0,59,-99.99,,,0.00,1-wire,2013-04-04 12:10:00,
2013-04-04 07:16:00,32.6,19.6,30.15,SSW,212,1.0,3.0,58,-99.99,,,0.00,1-wire,2013-04-04 12:16:00,
2013-04-04 07:22:00,33.0,19.9,30.15,SSW,212,3.0,6.0,58,-99.99,,,0.00,1-wire,2013-04-04 12:22:00,
2013-04-04 07:27:00,33.1,20.1,30.14,SSW,212,2.0,6.0,58,-99.99,,,0.00,1-wire,2013-04-04 12:27:00,
2013-04-04 07:32:00,33.1,20.0,30.14,SSW,212,2.0,3.0,58,-99.99,,,0.00,1-wire,2013-04-04 12:32:00,
2013-04-04 07:37:00,33.4,19.9,30.14,SW,214,4.0,10.0,57,-99.99,,,0.00,1-wire,2013-04-04 12:37:00,
2013-04-04 07:43:00,33.9,20.0,30.14,SW,214,3.0,6.0,56,-99.99,,,0.00,1-wire,2013-04-04 12:43:00,
2013-04-04 07:48:00,34.2,20.0,30.14,SW,214,5.0,9.0,56,-99.99,,,0.00,1-wire,2013-04-04 12:48:00,
2013-04-04 07:53:00,34.7,20.3,30.14,SW,217,5.0,11.0,55,-99.99,,,0.00,1-wire,2013-04-04 12:53:00,
2013-04-04 07:58:00,34.9,20.4,30.14,SW,217,3.0,6.0,55,-99.99,,,0.00,1-wire,2013-04-04 12:58:00,
2013-04-04 08:03:00,35.4,20.5,30.14,SW,217,6.0,11.0,54,-99.99,,,0.00,1-wire,2013-04-04 13:03:00,
2013-04-04 08:08:00,36.0,20.7,30.14,SW,220,3.0,6.0,53,-99.99,,,0.00,1-wire,2013-04-04 13:08:00,
2013-04-04 08:13:00,36.6,20.6,30.13,SW,220,6.0,9.0,52,-99.99,,,0.00,1-wire,2013-04-04 13:13:00,
2013-04-04 08:18:00,37.2,20.8,30.13,SW,220,4.0,9.0,51,-99.99,,,0.00,1-wire,2013-04-04 13:18:00,
2013-04-04 08:23:00,37.7,21.1,30.12,SW,214,6.0,12.0,51,-99.99,,,0.00,1-wire,2013-04-04 13:23:00,
2013-04-04 08:28:00,37.8,21.1,30.12,SW,214,4.0,9.0,51,-99.99,,,0.00,1-wire,2013-04-04 13:28:00,
2013-04-04 08:33:00,38.1,21.1,30.12,SW,214,5.0,8.0,50,-99.99,,,0.00,1-wire,2013-04-04 13:33:00,
2013-04-04 08:38:00,38.4,21.5,30.12,SW,215,5.0,9.0,50,-99.99,,,0.00,1-wire,2013-04-04 13:38:00,
2013-04-04 08:43:00,39.0,21.8,30.11,SW,215,3.0,6.0,50,-99.99,,,0.00,1-wire,2013-04-04 13:43:00,
2013-04-04 08:49:00,39.4,21.9,30.11,SW,215,6.0,11.0,49,-99.99,,,0.00,1-wire,2013-04-04 13:49:00,
2013-04-04 08:54:00,39.6,21.9,30.11,SW,217,6.0,13.0,49,-99.99,,,0.00,1-wire,2013-04-04 13:54:00,
2013-04-04 09:00:00,40.2,21.7,30.11,SW,217,5.0,8.0,47,-99.99,,,0.00,1-wire,2013-04-04 14:00:00,
2013-04-04 09:05:00,40.7,21.9,30.11,SW,217,5.0,8.0,47,-99.99,,,0.00,1-wire,2013-04-04 14:05:00,
2013-04-04 09:10:00,41.2,22.3,30.11,SW,219,3.0,6.0,47,-99.99,,,0.00,1-wire,2013-04-04 14:10:00,
2013-04-04 09:15:00,41.8,22.6,30.10,SW,219,2.0,6.0,46,-99.99,,,0.00,1-wire,2013-04-04 14:15:00,
2013-04-04 09:22:00,42.6,22.1,30.10,SSW,206,5.0,10.0,44,-99.99,,,0.00,1-wire,2013-04-04 14:22:00,
2013-04-04 09:27:00,43.7,22.2,30.10,SSW,206,5.0,9.0,42,-99.99,,,0.00,1-wire,2013-04-04 14:27:00,
2013-04-04 09:33:00,44.1,22.6,30.10,SSW,206,2.0,6.0,42,-99.99,,,0.00,1-wire,2013-04-04 14:33:00,
2013-04-04 09:38:00,44.3,22.0,30.10,SW,217,3.0,8.0,41,-99.99,,,0.00,1-wire,2013-04-04 14:38:00,
2013-04-04 09:43:00,44.6,22.0,30.10,SW,217,7.0,13.0,40,-99.99,,,0.00,1-wire,2013-04-04 14:43:00,
2013-04-04 09:48:00,44.7,21.9,30.09,SW,217,6.0,14.0,40,-99.99,,,0.00,1-wire,2013-04-04 14:48:00,
2013-04-04 09:53:00,45.0,22.3,30.09,SW,218,5.0,11.0,40,-99.99,,,0.00,1-wire,2013-04-04 14:53:00,
2013-04-04 09:58:00,45.7,22.7,30.09,SW,218,4.0,8.0,40,-99.99,,,0.00,1-wire,2013-04-04 14:58:00,
2013-04-04 10:03:00,46.0,22.1,30.09,SW,218,8.0,14.0,38,-99.99,,,0.00,1-wire,2013-04-04 15:03:00,
2013-04-04 10:09:00,46.2,22.6,30.09,WSW,245,5.0,11.0,39,-99.99,,,0.00,1-wire,2013-04-04 15:09:00,
2013-04-04 10:14:00,46.6,22.9,30.09,WSW,245,6.0,14.0,39,-99.99,,,0.00,1-wire,2013-04-04 15:14:00,
2013-04-04 10:20:00,46.8,22.9,30.09,WSW,245,6.0,13.0,38,-99.99,,,0.00,1-wire,2013-04-04 15:20:00,
2013-04-04 10:27:00,47.3,23.6,30.09,WSW,241,5.0,9.0,39,-99.99,,,0.00,1-wire,2013-04-04 15:27:00,
2013-04-04 10:32:00,47.8,23.4,30.09,WSW,241,7.0,11.0,38,-99.99,,,0.00,1-wire,2013-04-04 15:32:00,
2013-04-04 10:37:00,47.9,23.7,30.08,WSW,238,5.0,11.0,38,-99.99,,,0.00,1-wire,2013-04-04 15:37:00,
2013-04-04 10:42:00,48.1,23.5,30.08,WSW,238,8.0,17.0,38,-99.99,,,0.00,1-wire,2013-04-04 15:42:00,
2013-04-04 10:47:00,49.2,24.2,30.08,WSW,238,6.0,14.0,37,-99.99,,,0.00,1-wire,2013-04-04 15:47:00,
2013-04-04 10:53:00,49.5,24.0,30.08,WSW,239,7.0,11.0,36,-99.99,,,0.00,1-wire,2013-04-04 15:53:00,
2013-04-04 10:58:00,49.5,23.3,30.08,WSW,239,9.0,14.0,35,-99.99,,,0.00,1-wire,2013-04-04 15:58:00,
2013-04-04 11:03:00,50.0,23.7,30.08,WSW,239,7.0,13.0,35,-99.99,,,0.00,1-wire,2013-04-04 16:03:00,
2013-04-04 11:08:00,49.8,23.9,30.07,WSW,251,6.0,11.0,36,-99.99,,,0.00,1-wire,2013-04-04 16:08:00,
2013-04-04 11:13:00,50.6,24.5,30.07,WSW,251,6.0,13.0,36,-99.99,,,0.00,1-wire,2013-04-04 16:13:00,
2013-04-04 11:18:00,50.5,24.8,30.07,WSW,251,7.0,13.0,36,-99.99,,,0.00,1-wire,2013-04-04 16:18:00,
2013-04-04 11:23:00,51.1,24.7,30.07,WSW,241,8.0,17.0,35,-99.99,,,0.00,1-wire,2013-04-04 16:23:00,
2013-04-04 11:28:00,51.9,25.5,30.07,WSW,241,5.0,10.0,36,-99.99,,,0.00,1-wire,2013-04-04 16:28:00,
2013-04-04 11:33:00,51.2,24.6,30.07,WSW,241,8.0,16.0,35,-99.99,,,0.00,1-wire,2013-04-04 16:33:00,
2013-04-04 11:38:00,52.0,25.7,30.06,SW,234,8.0,14.0,36,-99.99,,,0.00,1-wire,2013-04-04 16:38:00,
2013-04-04 11:43:00,52.1,25.5,30.06,SW,234,7.0,14.0,35,-99.99,,,0.00,1-wire,2013-04-04 16:43:00,
2013-04-04 11:48:00,51.9,25.6,30.06,SW,234,7.0,11.0,36,-99.99,,,0.00,1-wire,2013-04-04 16:48:00,
2013-04-04 11:53:00,52.4,25.9,30.05,SW,233,5.0,11.0,35,-99.99,,,0.00,1-wire,2013-04-04 16:53:00,
2013-04-04 11:59:00,53.2,26.7,30.06,SW,233,8.0,19.0,36,-99.99,,,0.00,1-wire,2013-04-04 16:59:00,
2013-04-04 12:04:00,53.8,26.5,30.05,SW,233,4.0,8.0,35,-99.99,,,0.00,1-wire,2013-04-04 17:04:00,
2013-04-04 12:09:00,53.7,26.2,30.05,WSW,242,7.0,13.0,34,-99.99,,,0.00,1-wire,2013-04-04 17:09:00,
2013-04-04 12:15:00,53.4,26.7,30.05,WSW,242,6.0,16.0,35,-99.99,,,0.00,1-wire,2013-04-04 17:15:00,
2013-04-04 12:20:00,54.6,27.8,30.05,WSW,242,5.0,10.0,35,-99.99,,,0.00,1-wire,2013-04-04 17:20:00,
2013-04-04 12:27:00,53.5,26.7,30.05,WSW,246,5.0,10.0,35,-99.99,,,0.00,1-wire,2013-04-04 17:27:00,
2013-04-04 12:32:00,53.8,27.4,30.05,WSW,246,6.0,11.0,36,-99.99,,,0.00,1-wire,2013-04-04 17:32:00,
2013-04-04 12:37:00,54.4,27.2,30.04,WSW,255,7.0,16.0,35,-99.99,,,0.00,1-wire,2013-04-04 17:37:00,
2013-04-04 12:43:00,54.1,27.3,30.03,WSW,255,6.0,13.0,35,-99.99,,,0.00,1-wire,2013-04-04 17:43:00,
2013-04-04 12:48:00,53.7,27.4,30.03,WSW,255,5.0,11.0,36,-99.99,,,0.00,1-wire,2013-04-04 17:48:00,
2013-04-04 12:54:00,54.6,27.1,30.03,WSW,242,7.0,14.0,34,-99.99,,,0.00,1-wire,2013-04-04 17:54:00,
2013-04-04 13:00:00,54.6,27.9,30.03,WSW,242,5.0,11.0,36,-99.99,,,0.00,1-wire,2013-04-04 18:00:00,
2013-04-04 13:05:00,55.3,28.7,30.02,WSW,242,1.0,5.0,36,-99.99,,,0.00,1-wire,2013-04-04 18:05:00,
2013-04-04 13:11:00,55.1,27.5,30.02,WSW,240,9.0,17.0,34,-99.99,,,0.00,1-wire,2013-04-04 18:11:00,
2013-04-04 13:17:00,56.2,28.9,30.01,WSW,240,4.0,6.0,35,-99.99,,,0.00,1-wire,2013-04-04 18:17:00,
2013-04-04 13:22:00,57.3,29.5,30.01,WSW,252,4.0,11.0,34,-99.99,,,0.00,1-wire,2013-04-04 18:22:00,
2013-04-04 13:28:00,57.2,29.4,30.01,WSW,252,7.0,11.0,34,-99.99,,,0.00,1-wire,2013-04-04 18:28:00,
2013-04-04 13:33:00,56.0,28.5,30.00,WSW,252,9.0,16.0,35,-99.99,,,0.00,1-wire,2013-04-04 18:33:00,
2013-04-04 13:38:00,56.9,28.9,29.99,WSW,242,4.0,8.0,34,-99.99,,,0.00,1-wire,2013-04-04 18:38:00,
2013-04-04 13:43:00,57.4,29.7,29.99,WSW,242,5.0,8.0,35,-99.99,,,0.00,1-wire,2013-04-04 18:43:00,
2013-04-04 13:48:00,57.6,29.1,29.99,WSW,242,9.0,14.0,34,-99.99,,,0.00,1-wire,2013-04-04 18:48:00,
2013-04-04 13:53:00,57.8,29.5,29.99,WSW,242,7.0,13.0,34,-99.99,,,0.00,1-wire,2013-04-04 18:53:00,
2013-04-04 13:58:00,57.3,29.2,29.99,WSW,242,5.0,9.0,34,-99.99,,,0.00,1-wire,2013-04-04 18:58:00,
2013-04-04 14:03:00,58.1,29.7,29.99,WSW,242,8.0,13.0,34,-99.99,,,0.00,1-wire,2013-04-04 19:03:00,
2013-04-04 14:08:00,57.5,29.9,29.99,WSW,245,8.0,14.0,35,-99.99,,,0.00,1-wire,2013-04-04 19:08:00,
2013-04-04 14:13:00,58.6,30.4,29.99,WSW,245,6.0,13.0,34,-99.99,,,0.00,1-wire,2013-04-04 19:13:00,
2013-04-04 14:18:00,57.3,30.0,29.98,WSW,245,3.0,8.0,35,-99.99,,,0.00,1-wire,2013-04-04 19:18:00,
2013-04-04 14:23:00,57.6,30.2,29.98,West,267,7.0,13.0,35,-99.99,,,0.00,1-wire,2013-04-04 19:23:00,
2013-04-04 14:29:00,56.3,30.1,29.98,West,267,8.0,17.0,37,-99.99,,,0.00,1-wire,2013-04-04 19:29:00,
2013-04-04 14:34:00,57.3,30.9,29.97,West,267,6.0,10.0,36,-99.99,,,0.00,1-wire,2013-04-04 19:34:00,
2013-04-04 14:40:00,57.1,31.2,29.97,West,271,3.0,6.0,37,-99.99,,,0.00,1-wire,2013-04-04 19:40:00,
2013-04-04 14:45:00,57.3,30.5,29.98,West,271,5.0,10.0,36,-99.99,,,0.00,1-wire,2013-04-04 19:45:00,
2013-04-04 14:52:00,58.2,31.0,29.97,West,263,3.0,8.0,35,-99.99,,,0.00,1-wire,2013-04-04 19:52:00,
2013-04-04 14:57:00,57.8,31.1,29.98,West,263,6.0,13.0,36,-99.99,,,0.00,1-wire,2013-04-04 19:57:00,
2013-04-04 15:02:00,56.6,30.8,29.97,West,263,6.0,14.0,37,-99.99,,,0.00,1-wire,2013-04-04 20:02:00,
2013-04-04 15:08:00,56.9,31.2,29.97,WSW,256,6.0,10.0,38,-99.99,,,0.00,1-wire,2013-04-04 20:08:00,
2013-04-04 15:13:00,56.2,31.2,29.97,WSW,256,6.0,11.0,38,-99.99,,,0.00,1-wire,2013-04-04 20:13:00,
2013-04-04 15:19:00,57.0,31.7,29.97,WSW,256,4.0,6.0,38,-99.99,,,0.00,1-wire,2013-04-04 20:19:00,
2013-04-04 15:25:00,57.2,32.1,29.97,West,260,5.0,11.0,38,-99.99,,,0.00,1-wire,2013-04-04 20:25:00,
2013-04-04 15:30:00,56.9,32.2,29.96,West,260,5.0,8.0,39,-99.99,,,0.00,1-wire,2013-04-04 20:30:00,
2013-04-04 15:35:00,56.4,32.3,29.96,West,260,3.0,6.0,40,-99.99,,,0.00,1-wire,2013-04-04 20:35:00,
2013-04-04 15:41:00,56.5,32.6,29.96,WSW,257,3.0,6.0,40,-99.99,,,0.00,1-wire,2013-04-04 20:41:00,
2013-04-04 15:47:00,56.5,32.2,29.96,WSW,257,7.0,13.0,40,-99.99,,,0.00,1-wire,2013-04-04 20:47:00,
2013-04-04 15:52:00,56.5,32.6,29.95,West,268,8.0,14.0,40,-99.99,,,0.00,1-wire,2013-04-04 20:52:00,
2013-04-04 15:57:00,56.3,32.6,29.96,West,268,8.0,13.0,41,-99.99,,,0.00,1-wire,2013-04-04 20:57:00,
2013-04-04 16:02:00,56.5,32.8,29.95,West,268,6.0,11.0,41,-99.99,,,0.00,1-wire,2013-04-04 21:02:00,
2013-04-04 16:07:00,56.9,33.3,29.94,West,278,7.0,14.0,41,-99.99,,,0.00,1-wire,2013-04-04 21:07:00,
2013-04-04 16:12:00,57.4,33.3,29.95,West,278,4.0,9.0,40,-99.99,,,0.00,1-wire,2013-04-04 21:12:00,
2013-04-04 16:17:00,57.2,33.5,29.94,West,278,5.0,11.0,41,-99.99,,,0.00,1-wire,2013-04-04 21:17:00,
2013-04-04 16:22:00,57.0,33.4,29.95,WSW,247,5.0,9.0,41,-99.99,,,0.00,1-wire,2013-04-04 21:22:00,
2013-04-04 16:27:00,58.2,33.7,29.95,WSW,247,2.0,6.0,39,-99.99,,,0.00,1-wire,2013-04-04 21:27:00,
2013-04-04 16:32:00,58.1,33.3,29.95,WSW,247,6.0,14.0,39,-99.99,,,0.00,1-wire,2013-04-04 21:32:00,
2013-04-04 16:37:00,58.2,33.4,29.96,WSW,249,7.0,14.0,39,-99.99,,,0.00,1-wire,2013-04-04 21:37:00,
2013-04-04 16:42:00,57.2,33.1,29.95,WSW,249,6.0,13.0,40,-99.99,,,0.00,1-wire,2013-04-04 21:42:00,
2013-04-04 16:47:00,57.8,33.2,29.94,WSW,249,4.0,11.0,39,-99.99,,,0.00,1-wire,2013-04-04 21:47:00,
2013-04-04 16:52:00,58.6,33.6,29.95,WSW,246,2.0,6.0,39,-99.99,,,0.00,1-wire,2013-04-04 21:52:00,
2013-04-04 16:57:00,58.2,33.5,29.95,WSW,246,4.0,9.0,39,-99.99,,,0.00,1-wire,2013-04-04 21:57:00,
2013-04-04 17:02:00,58.3,33.7,29.95,WSW,246,6.0,9.0,39,-99.99,,,0.00,1-wire,2013-04-04 22:02:00,
2013-04-04 17:07:00,58.1,33.5,29.95,WNW,284,4.0,10.0,39,-99.99,,,0.00,1-wire,2013-04-04 22:07:00,
2013-04-04 17:12:00,58.6,33.6,29.96,WNW,284,3.0,9.0,39,-99.99,,,0.00,1-wire,2013-04-04 22:12:00,
2013-04-04 17:17:00,58.4,33.6,29.96,WNW,284,2.0,6.0,39,-99.99,,,0.00,1-wire,2013-04-04 22:17:00,
2013-04-04 17:23:00,57.6,33.7,29.96,WNW,293,3.0,6.0,40,-99.99,,,0.00,1-wire,2013-04-04 22:23:00,
2013-04-04 17:28:00,57.1,33.6,29.96,WNW,293,2.0,6.0,41,-99.99,,,0.00,1-wire,2013-04-04 22:28:00,
2013-04-04 17:33:00,56.4,33.9,29.96,WNW,293,6.0,11.0,42,-99.99,,,0.00,1-wire,2013-04-04 22:33:00,
2013-04-04 17:38:00,55.8,34.0,29.96,WNW,294,7.0,13.0,44,-99.99,,,0.00,1-wire,2013-04-04 22:38:00,
2013-04-04 17:43:00,55.8,34.1,29.97,WNW,294,3.0,6.0,44,-99.99,,,0.00,1-wire,2013-04-04 22:43:00,
2013-04-04 17:48:00,55.5,34.1,29.96,WNW,294,4.0,6.0,44,-99.99,,,0.00,1-wire,2013-04-04 22:48:00,
2013-04-04 17:53:00,55.3,33.8,29.97,WNW,296,6.0,11.0,44,-99.99,,,0.00,1-wire,2013-04-04 22:53:00,
2013-04-04 17:58:00,55.0,33.7,29.97,WNW,296,5.0,9.0,44,-99.99,,,0.00,1-wire,2013-04-04 22:58:00,
2013-04-04 18:03:00,54.8,34.1,29.97,WNW,296,2.0,3.0,45,-99.99,,,0.00,1-wire,2013-04-04 23:03:00,
2013-04-04 18:09:00,54.8,34.0,29.97,WNW,301,3.0,8.0,45,-99.99,,,0.00,1-wire,2013-04-04 23:09:00,
2013-04-04 18:14:00,54.4,33.4,29.97,WNW,301,2.0,6.0,45,-99.99,,,0.00,1-wire,2013-04-04 23:14:00,
2013-04-04 18:20:00,54.6,33.7,29.97,WNW,301,3.0,6.0,45,-99.99,,,0.00,1-wire,2013-04-04 23:20:00,
2013-04-04 18:25:00,54.3,33.8,29.97,NW,310,2.0,6.0,46,-99.99,,,0.00,1-wire,2013-04-04 23:25:00,
2013-04-04 18:31:00,54.0,33.6,29.97,NW,310,1.0,3.0,46,-99.99,,,0.00,1-wire,2013-04-04 23:31:00,
2013-04-04 18:37:00,53.8,33.5,29.97,NW,311,4.0,6.0,46,-99.99,,,0.00,1-wire,2013-04-04 23:37:00,
2013-04-04 18:42:00,53.6,33.4,29.97,NW,311,1.0,3.0,46,-99.99,,,0.00,1-wire,2013-04-04 23:42:00,
2013-04-04 18:47:00,53.6,33.5,29.97,NW,311,1.0,3.0,46,-99.99,,,0.00,1-wire,2013-04-04 23:47:00,
2013-04-04 18:52:00,53.1,33.6,29.97,WNW,299,1.0,3.0,47,-99.99,,,0.00,1-wire,2013-04-04 23:52:00,
2013-04-04 18:57:00,52.6,33.3,29.98,WNW,299,2.0,6.0,48,-99.99,,,0.00,1-wire,2013-04-04 23:57:00,
2013-04-04 19:02:00,52.6,33.7,29.97,WNW,299,1.0,3.0,48,-99.99,,,0.00,1-wire,2013-04-05 00:02:00,
2013-04-04 19:07:00,52.4,33.6,29.97,NW,317,2.0,6.0,49,-99.99,,,0.00,1-wire,2013-04-05 00:07:00,
2013-04-04 19:12:00,51.9,32.3,29.97,NW,317,2.0,6.0,47,-99.99,,,0.00,1-wire,2013-04-05 00:12:00,
2013-04-04 19:17:00,51.6,31.1,29.97,NW,317,1.0,3.0,45,-99.99,,,0.00,1-wire,2013-04-05 00:17:00,
2013-04-04 19:22:00,51.4,30.7,29.98,NW,325,1.0,3.0,45,-99.99,,,0.00,1-wire,2013-04-05 00:22:00,
2013-04-04 19:27:00,50.8,30.4,29.98,NW,325,3.0,8.0,45,-99.99,,,0.00,1-wire,2013-04-05 00:27:00,
2013-04-04 19:32:00,49.8,31.4,29.98,NW,325,2.0,6.0,49,-99.99,,,0.00,1-wire,2013-04-05 00:32:00,
2013-04-04 19:37:00,49.6,31.5,29.98,NNW,328,2.0,6.0,50,-99.99,,,0.00,1-wire,2013-04-05 00:37:00,
2013-04-04 19:43:00,49.3,31.6,29.98,NNW,328,2.0,5.0,50,-99.99,,,0.00,1-wire,2013-04-05 00:43:00,
2013-04-04 19:48:00,49.2,31.7,29.98,NNW,328,1.0,3.0,51,-99.99,,,0.00,1-wire,2013-04-05 00:48:00,
2013-04-04 19:53:00,48.9,31.8,29.98,NNW,329,0.0,3.0,52,-99.99,,,0.00,1-wire,2013-04-05 00:53:00,
2013-04-04 19:58:00,48.8,32.0,29.98,NNW,329,0.0,0.0,52,-99.99,,,0.00,1-wire,2013-04-05 00:58:00,
2013-04-04 20:03:00,48.3,31.8,29.99,NNW,329,2.0,8.0,53,-99.99,,,0.00,1-wire,2013-04-05 01:03:00,
2013-04-04 20:08:00,48.2,31.8,29.99,NNW,327,1.0,3.0,53,-99.99,,,0.00,1-wire,2013-04-05 01:08:00,
2013-04-04 20:13:00,48.0,31.7,29.99,NNW,327,1.0,3.0,53,-99.99,,,0.00,1-wire,2013-04-05 01:13:00,
2013-04-04 20:18:00,47.7,31.8,29.99,NNW,327,1.0,3.0,54,-99.99,,,0.00,1-wire,2013-04-05 01:18:00,
2013-04-04 20:24:00,47.2,31.9,29.99,NNW,329,1.0,3.0,55,-99.99,,,0.00,1-wire,2013-04-05 01:24:00,
2013-04-04 20:29:00,47.0,31.7,30.00,NNW,329,1.0,3.0,55,-99.99,,,0.00,1-wire,2013-04-05 01:29:00,
2013-04-04 20:35:00,47.1,31.8,30.00,NNW,329,0.0,0.0,55,-99.99,,,0.00,1-wire,2013-04-05 01:35:00,
2013-04-04 20:40:00,46.8,31.5,30.00,NNW,332,1.0,3.0,55,-99.99,,,0.00,1-wire,2013-04-05 01:40:00,
2013-04-04 20:45:00,46.6,31.4,30.00,NNW,332,4.0,8.0,55,-99.99,,,0.00,1-wire,2013-04-05 01:45:00,
2013-04-04 20:51:00,46.5,31.5,30.00,NNW,332,2.0,6.0,56,-99.99,,,0.00,1-wire,2013-04-05 01:51:00,
2013-04-04 20:57:00,46.2,31.4,30.01,NNW,332,1.0,6.0,56,-99.99,,,0.00,1-wire,2013-04-05 01:57:00,
2013-04-04 21:02:00,45.9,31.3,30.01,NNW,332,1.0,3.0,56,-99.99,,,0.00,1-wire,2013-04-05 02:02:00,
2013-04-04 21:08:00,45.6,31.3,30.01,NW,326,1.0,3.0,57,-99.99,,,0.00,1-wire,2013-04-05 02:08:00,
2013-04-04 21:13:00,45.6,31.2,30.01,NW,326,1.0,3.0,57,-99.99,,,0.00,1-wire,2013-04-05 02:13:00,
2013-04-04 21:19:00,45.8,31.4,30.02,NW,326,1.0,3.0,57,-99.99,,,0.00,1-wire,2013-04-05 02:19:00,
2013-04-04 21:24:00,45.7,31.2,30.02,NW,323,1.0,3.0,57,-99.99,,,0.00,1-wire,2013-04-05 02:24:00,
2013-04-04 21:29:00,45.7,31.6,30.02,NW,323,0.0,0.0,57,-99.99,,,0.00,1-wire,2013-04-05 02:29:00,
2013-04-04 21:35:00,45.5,31.5,30.03,NW,323,0.0,0.0,58,-99.99,,,0.00,1-wire,2013-04-05 02:35:00,
2013-04-04 21:40:00,45.1,31.3,30.03,NW,324,0.0,3.0,58,-99.99,,,0.00,1-wire,2013-04-05 02:40:00,
2013-04-04 21:46:00,44.6,31.0,30.03,NW,324,0.0,0.0,59,-99.99,,,0.00,1-wire,2013-04-05 02:46:00,
2013-04-04 21:52:00,44.5,31.0,30.03,NNW,329,0.0,3.0,59,-99.99,,,0.00,1-wire,2013-04-05 02:52:00,
2013-04-04 21:57:00,44.1,30.4,30.03,NNW,329,2.0,6.0,58,-99.99,,,0.00,1-wire,2013-04-05 02:57:00,
2013-04-04 22:02:00,44.2,30.5,30.03,NNW,329,1.0,3.0,58,-99.99,,,0.00,1-wire,2013-04-05 03:02:00,
2013-04-04 22:07:00,44.1,30.4,30.03,NW,317,0.0,0.0,58,-99.99,,,0.00,1-wire,2013-04-05 03:07:00,
2013-04-04 22:13:00,43.6,30.2,30.03,NW,317,0.0,3.0,59,-99.99,,,0.00,1-wire,2013-04-05 03:13:00,
2013-04-04 22:18:00,43.3,29.9,30.03,NW,317,1.0,3.0,59,-99.99,,,0.00,1-wire,2013-04-05 03:18:00,
2013-04-04 22:23:00,42.9,29.7,30.03,NW,316,0.0,3.0,59,-99.99,,,0.00,1-wire,2013-04-05 03:23:00,
2013-04-04 22:28:00,43.0,29.7,30.03,NW,316,2.0,6.0,59,-99.99,,,0.00,1-wire,2013-04-05 03:28:00,
2013-04-04 22:33:00,43.0,29.7,30.03,NW,316,0.0,3.0,59,-99.99,,,0.00,1-wire,2013-04-05 03:33:00,
2013-04-04 22:38:00,42.9,29.4,30.04,NW,318,2.0,6.0,58,-99.99,,,0.00,1-wire,2013-04-05 03:38:00,
2013-04-04 22:43:00,42.9,29.3,30.03,NW,318,1.0,3.0,58,-99.99,,,0.00,1-wire,2013-04-05 03:43:00,
2013-04-04 22:48:00,42.7,29.1,30.03,NW,318,0.0,3.0,59,-99.99,,,0.00,1-wire,2013-04-05 03:48:00,
2013-04-04 22:53:00,42.8,28.9,30.04,NW,317,1.0,3.0,58,-99.99,,,0.00,1-wire,2013-04-05 03:53:00,
2013-04-04 22:58:00,42.7,28.8,30.04,NW,317,3.0,6.0,58,-99.99,,,0.00,1-wire,2013-04-05 03:58:00,
2013-04-04 23:00:00,42.6,28.8,30.04,NW,317,2.0,6.0,58,-99.99,,,0.00,1-wire,2013-04-05 04:00:00,
2013-04-04 23:02:00,42.6,28.7,30.04,NW,317,3.0,6.0,58,-99.99,,,0.00,1-wire,2013-04-05 04:02:00,
2013-04-04 23:04:00,42.7,28.7,30.04,NW,317,1.0,3.0,57,-99.99,,,0.00,1-wire,2013-04-05 04:04:00,
2013-04-04 23:05:00,42.7,28.7,30.04,NW,317,2.0,3.0,57,-99.99,,,0.00,1-wire,2013-04-05 04:05:00,
2013-04-04 23:10:00,42.5,28.4,30.04,NNW,329,3.0,6.0,57,-99.99,,,0.00,1-wire,2013-04-05 04:10:00,
2013-04-04 23:15:00,42.3,28.4,30.04,NNW,329,2.0,3.0,58,-99.99,,,0.00,1-wire,2013-04-05 04:15:00,
2013-04-04 23:20:00,42.1,28.1,30.04,NNW,329,3.0,6.0,57,-99.99,,,0.00,1-wire,2013-04-05 04:20:00,
2013-04-04 23:27:00,41.9,28.1,30.04,NNW,328,3.0,6.0,58,-99.99,,,0.00,1-wire,2013-04-05 04:27:00,
2013-04-04 23:32:00,41.7,28.2,30.04,NNW,328,2.0,6.0,58,-99.99,,,0.00,1-wire,2013-04-05 04:32:00,
2013-04-04 23:37:00,41.7,28.2,30.04,NNW,331,2.0,6.0,58,-99.99,,,0.00,1-wire,2013-04-05 04:37:00,
2013-04-04 23:42:00,41.4,28.1,30.04,NNW,331,3.0,6.0,59,-99.99,,,0.00,1-wire,2013-04-05 04:42:00,
2013-04-04 23:47:00,41.4,28.2,30.05,NNW,331,1.0,3.0,59,-99.99,,,0.00,1-wire,2013-04-05 04:47:00,
2013-04-04 23:52:00,41.2,28.2,30.05,NNW,328,0.0,0.0,60,-99.99,,,0.00,1-wire,2013-04-05 04:52:00,
2013-04-04 23:57:00,40.9,28.0,30.05,NNW,328,0.0,3.0,60,-99.99,,,0.00,1-wire,2013-04-05 04:57:00,